Data supplied by UK-AIR on 5/4/2008
All Data GMT hour ending 
Status: R =Ratified P=Provisional,P*=As supplied
,,Somerton,,,,,,,,,,,,,,,,,,,,,,,
Date,time,"Ozone",status,unit
 
01-01-2002,01:00,,,
01-01-2002,02:00,6,R,ugm-3
01-01-2002,03:00,4,R,ugm-3
01-01-2002,04:00,6,R,ugm-3
01-01-2002,05:00,12,R,ugm-3
01-01-2002,06:00,8,R,ugm-3
01-01-2002,07:00,24,R,ugm-3
01-01-2002,08:00,34,R,ugm-3
01-01-2002,09:00,36,R,ugm-3
01-01-2002,10:00,22,R,ugm-3
01-01-2002,11:00,36,R,ugm-3
01-01-2002,12:00,42,R,ugm-3
01-01-2002,13:00,44,R,ugm-3
01-01-2002,14:00,44,R,ugm-3
01-01-2002,15:00,42,R,ugm-3
01-01-2002,16:00,42,R,ugm-3
01-01-2002,17:00,32,R,ugm-3
01-01-2002,18:00,38,R,ugm-3
01-01-2002,19:00,48,R,ugm-3
01-01-2002,20:00,56,R,ugm-3
01-01-2002,21:00,54,R,ugm-3
01-01-2002,22:00,46,R,ugm-3
01-01-2002,23:00,44,R,ugm-3
01-01-2002,24:00,40,R,ugm-3
02-01-2002,01:00,40,R,ugm-3
02-01-2002,02:00,38,R,ugm-3
02-01-2002,03:00,38,R,ugm-3
02-01-2002,04:00,34,R,ugm-3
02-01-2002,05:00,38,R,ugm-3
02-01-2002,06:00,42,R,ugm-3
02-01-2002,07:00,36,R,ugm-3
02-01-2002,08:00,36,R,ugm-3
02-01-2002,09:00,36,R,ugm-3
02-01-2002,10:00,36,R,ugm-3
02-01-2002,11:00,34,R,ugm-3
02-01-2002,12:00,34,R,ugm-3
02-01-2002,13:00,36,R,ugm-3
02-01-2002,14:00,42,R,ugm-3
02-01-2002,15:00,42,R,ugm-3
02-01-2002,16:00,48,R,ugm-3
02-01-2002,17:00,48,R,ugm-3
02-01-2002,18:00,50,R,ugm-3
02-01-2002,19:00,50,R,ugm-3
02-01-2002,20:00,50,R,ugm-3
02-01-2002,21:00,42,R,ugm-3
02-01-2002,22:00,42,R,ugm-3
02-01-2002,23:00,40,R,ugm-3
02-01-2002,24:00,44,R,ugm-3
03-01-2002,01:00,44,R,ugm-3
03-01-2002,02:00,50,R,ugm-3
03-01-2002,03:00,52,R,ugm-3
03-01-2002,04:00,48,R,ugm-3
03-01-2002,05:00,46,R,ugm-3
03-01-2002,06:00,44,R,ugm-3
03-01-2002,07:00,56,R,ugm-3
03-01-2002,08:00,56,R,ugm-3
03-01-2002,09:00,42,R,ugm-3
03-01-2002,10:00,34,R,ugm-3
03-01-2002,11:00,,,
03-01-2002,12:00,36,R,ugm-3
03-01-2002,13:00,44,R,ugm-3
03-01-2002,14:00,48,R,ugm-3
03-01-2002,15:00,46,R,ugm-3
03-01-2002,16:00,40,R,ugm-3
03-01-2002,17:00,38,R,ugm-3
03-01-2002,18:00,36,R,ugm-3
03-01-2002,19:00,34,R,ugm-3
03-01-2002,20:00,34,R,ugm-3
03-01-2002,21:00,34,R,ugm-3
03-01-2002,22:00,30,R,ugm-3
03-01-2002,23:00,28,R,ugm-3
03-01-2002,24:00,26,R,ugm-3
04-01-2002,01:00,24,R,ugm-3
04-01-2002,02:00,22,R,ugm-3
04-01-2002,03:00,20,R,ugm-3
04-01-2002,04:00,24,R,ugm-3
04-01-2002,05:00,22,R,ugm-3
04-01-2002,06:00,24,R,ugm-3
04-01-2002,07:00,24,R,ugm-3
04-01-2002,08:00,20,R,ugm-3
04-01-2002,09:00,16,R,ugm-3
04-01-2002,10:00,18,R,ugm-3
04-01-2002,11:00,18,R,ugm-3
04-01-2002,12:00,18,R,ugm-3
04-01-2002,13:00,18,R,ugm-3
04-01-2002,14:00,22,R,ugm-3
04-01-2002,15:00,24,R,ugm-3
04-01-2002,16:00,16,R,ugm-3
04-01-2002,17:00,8,R,ugm-3
04-01-2002,18:00,4,R,ugm-3
04-01-2002,19:00,2,R,ugm-3
04-01-2002,20:00,4,R,ugm-3
04-01-2002,21:00,12,R,ugm-3
04-01-2002,22:00,18,R,ugm-3
04-01-2002,23:00,16,R,ugm-3
04-01-2002,24:00,20,R,ugm-3
05-01-2002,01:00,16,R,ugm-3
05-01-2002,02:00,12,R,ugm-3
05-01-2002,03:00,10,R,ugm-3
05-01-2002,04:00,10,R,ugm-3
05-01-2002,05:00,24,R,ugm-3
05-01-2002,06:00,36,R,ugm-3
05-01-2002,07:00,38,R,ugm-3
05-01-2002,08:00,36,R,ugm-3
05-01-2002,09:00,34,R,ugm-3
05-01-2002,10:00,36,R,ugm-3
05-01-2002,11:00,48,R,ugm-3
05-01-2002,12:00,48,R,ugm-3
05-01-2002,13:00,52,R,ugm-3
05-01-2002,14:00,58,R,ugm-3
05-01-2002,15:00,52,R,ugm-3
05-01-2002,16:00,50,R,ugm-3
05-01-2002,17:00,42,R,ugm-3
05-01-2002,18:00,36,R,ugm-3
05-01-2002,19:00,38,R,ugm-3
05-01-2002,20:00,36,R,ugm-3
05-01-2002,21:00,30,R,ugm-3
05-01-2002,22:00,28,R,ugm-3
05-01-2002,23:00,36,R,ugm-3
05-01-2002,24:00,34,R,ugm-3
06-01-2002,01:00,42,R,ugm-3
06-01-2002,02:00,54,R,ugm-3
06-01-2002,03:00,46,R,ugm-3
06-01-2002,04:00,48,R,ugm-3
06-01-2002,05:00,46,R,ugm-3
06-01-2002,06:00,44,R,ugm-3
06-01-2002,07:00,36,R,ugm-3
06-01-2002,08:00,32,R,ugm-3
06-01-2002,09:00,18,R,ugm-3
06-01-2002,10:00,30,R,ugm-3
06-01-2002,11:00,20,R,ugm-3
06-01-2002,12:00,20,R,ugm-3
06-01-2002,13:00,38,R,ugm-3
06-01-2002,14:00,46,R,ugm-3
06-01-2002,15:00,54,R,ugm-3
06-01-2002,16:00,50,R,ugm-3
06-01-2002,17:00,44,R,ugm-3
06-01-2002,18:00,32,R,ugm-3
06-01-2002,19:00,30,R,ugm-3
06-01-2002,20:00,26,R,ugm-3
06-01-2002,21:00,30,R,ugm-3
06-01-2002,22:00,20,R,ugm-3
06-01-2002,23:00,20,R,ugm-3
06-01-2002,24:00,30,R,ugm-3
07-01-2002,01:00,30,R,ugm-3
07-01-2002,02:00,26,R,ugm-3
07-01-2002,03:00,30,R,ugm-3
07-01-2002,04:00,32,R,ugm-3
07-01-2002,05:00,36,R,ugm-3
07-01-2002,06:00,40,R,ugm-3
07-01-2002,07:00,38,R,ugm-3
07-01-2002,08:00,24,R,ugm-3
07-01-2002,09:00,22,R,ugm-3
07-01-2002,10:00,32,R,ugm-3
07-01-2002,11:00,36,R,ugm-3
07-01-2002,12:00,48,R,ugm-3
07-01-2002,13:00,50,R,ugm-3
07-01-2002,14:00,54,R,ugm-3
07-01-2002,15:00,46,R,ugm-3
07-01-2002,16:00,36,R,ugm-3
07-01-2002,17:00,32,R,ugm-3
07-01-2002,18:00,32,R,ugm-3
07-01-2002,19:00,32,R,ugm-3
07-01-2002,20:00,30,R,ugm-3
07-01-2002,21:00,24,R,ugm-3
07-01-2002,22:00,16,R,ugm-3
07-01-2002,23:00,14,R,ugm-3
07-01-2002,24:00,12,R,ugm-3
08-01-2002,01:00,12,R,ugm-3
08-01-2002,02:00,26,R,ugm-3
08-01-2002,03:00,36,R,ugm-3
08-01-2002,04:00,36,R,ugm-3
08-01-2002,05:00,34,R,ugm-3
08-01-2002,06:00,32,R,ugm-3
08-01-2002,07:00,30,R,ugm-3
08-01-2002,08:00,34,R,ugm-3
08-01-2002,09:00,34,R,ugm-3
08-01-2002,10:00,34,R,ugm-3
08-01-2002,11:00,20,R,ugm-3
08-01-2002,12:00,16,R,ugm-3
08-01-2002,13:00,12,R,ugm-3
08-01-2002,14:00,10,R,ugm-3
08-01-2002,15:00,20,R,ugm-3
08-01-2002,16:00,32,R,ugm-3
08-01-2002,17:00,32,R,ugm-3
08-01-2002,18:00,28,R,ugm-3
08-01-2002,19:00,22,R,ugm-3
08-01-2002,20:00,22,R,ugm-3
08-01-2002,21:00,26,R,ugm-3
08-01-2002,22:00,26,R,ugm-3
08-01-2002,23:00,26,R,ugm-3
08-01-2002,24:00,24,R,ugm-3
09-01-2002,01:00,20,R,ugm-3
09-01-2002,02:00,20,R,ugm-3
09-01-2002,03:00,22,R,ugm-3
09-01-2002,04:00,24,R,ugm-3
09-01-2002,05:00,28,R,ugm-3
09-01-2002,06:00,30,R,ugm-3
09-01-2002,07:00,30,R,ugm-3
09-01-2002,08:00,30,R,ugm-3
09-01-2002,09:00,26,R,ugm-3
09-01-2002,10:00,20,R,ugm-3
09-01-2002,11:00,20,R,ugm-3
09-01-2002,12:00,22,R,ugm-3
09-01-2002,13:00,26,R,ugm-3
09-01-2002,14:00,30,R,ugm-3
09-01-2002,15:00,14,R,ugm-3
09-01-2002,16:00,6,R,ugm-3
09-01-2002,17:00,2,R,ugm-3
09-01-2002,18:00,2,R,ugm-3
09-01-2002,19:00,2,R,ugm-3
09-01-2002,20:00,4,R,ugm-3
09-01-2002,21:00,4,R,ugm-3
09-01-2002,22:00,2,R,ugm-3
09-01-2002,23:00,2,R,ugm-3
09-01-2002,24:00,2,R,ugm-3
10-01-2002,01:00,8,R,ugm-3
10-01-2002,02:00,4,R,ugm-3
10-01-2002,03:00,6,R,ugm-3
10-01-2002,04:00,14,R,ugm-3
10-01-2002,05:00,14,R,ugm-3
10-01-2002,06:00,6,R,ugm-3
10-01-2002,07:00,2,R,ugm-3
10-01-2002,08:00,2,R,ugm-3
10-01-2002,09:00,4,R,ugm-3
10-01-2002,10:00,8,R,ugm-3
10-01-2002,11:00,10,R,ugm-3
10-01-2002,12:00,12,R,ugm-3
10-01-2002,13:00,16,R,ugm-3
10-01-2002,14:00,20,R,ugm-3
10-01-2002,15:00,24,R,ugm-3
10-01-2002,16:00,26,R,ugm-3
10-01-2002,17:00,20,R,ugm-3
10-01-2002,18:00,20,R,ugm-3
10-01-2002,19:00,26,R,ugm-3
10-01-2002,20:00,22,R,ugm-3
10-01-2002,21:00,24,R,ugm-3
10-01-2002,22:00,18,R,ugm-3
10-01-2002,23:00,18,R,ugm-3
10-01-2002,24:00,8,R,ugm-3
11-01-2002,01:00,4,R,ugm-3
11-01-2002,02:00,10,R,ugm-3
11-01-2002,03:00,6,R,ugm-3
11-01-2002,04:00,6,R,ugm-3
11-01-2002,05:00,4,R,ugm-3
11-01-2002,06:00,4,R,ugm-3
11-01-2002,07:00,2,R,ugm-3
11-01-2002,08:00,0,R,ugm-3
11-01-2002,09:00,2,R,ugm-3
11-01-2002,10:00,8,R,ugm-3
11-01-2002,11:00,14,R,ugm-3
11-01-2002,12:00,22,R,ugm-3
11-01-2002,13:00,30,R,ugm-3
11-01-2002,14:00,54,R,ugm-3
11-01-2002,15:00,54,R,ugm-3
11-01-2002,16:00,48,R,ugm-3
11-01-2002,17:00,34,R,ugm-3
11-01-2002,18:00,30,R,ugm-3
11-01-2002,19:00,28,R,ugm-3
11-01-2002,20:00,40,R,ugm-3
11-01-2002,21:00,48,R,ugm-3
11-01-2002,22:00,46,R,ugm-3
11-01-2002,23:00,40,R,ugm-3
11-01-2002,24:00,42,R,ugm-3
12-01-2002,01:00,38,R,ugm-3
12-01-2002,02:00,36,R,ugm-3
12-01-2002,03:00,40,R,ugm-3
12-01-2002,04:00,44,R,ugm-3
12-01-2002,05:00,46,R,ugm-3
12-01-2002,06:00,38,R,ugm-3
12-01-2002,07:00,38,R,ugm-3
12-01-2002,08:00,32,R,ugm-3
12-01-2002,09:00,26,R,ugm-3
12-01-2002,10:00,28,R,ugm-3
12-01-2002,11:00,38,R,ugm-3
12-01-2002,12:00,44,R,ugm-3
12-01-2002,13:00,48,R,ugm-3
12-01-2002,14:00,44,R,ugm-3
12-01-2002,15:00,50,R,ugm-3
12-01-2002,16:00,48,R,ugm-3
12-01-2002,17:00,58,R,ugm-3
12-01-2002,18:00,56,R,ugm-3
12-01-2002,19:00,52,R,ugm-3
12-01-2002,20:00,56,R,ugm-3
12-01-2002,21:00,58,R,ugm-3
12-01-2002,22:00,60,R,ugm-3
12-01-2002,23:00,64,R,ugm-3
12-01-2002,24:00,62,R,ugm-3
13-01-2002,01:00,60,R,ugm-3
13-01-2002,02:00,56,R,ugm-3
13-01-2002,03:00,56,R,ugm-3
13-01-2002,04:00,52,R,ugm-3
13-01-2002,05:00,50,R,ugm-3
13-01-2002,06:00,50,R,ugm-3
13-01-2002,07:00,52,R,ugm-3
13-01-2002,08:00,54,R,ugm-3
13-01-2002,09:00,56,R,ugm-3
13-01-2002,10:00,58,R,ugm-3
13-01-2002,11:00,58,R,ugm-3
13-01-2002,12:00,64,R,ugm-3
13-01-2002,13:00,64,R,ugm-3
13-01-2002,14:00,66,R,ugm-3
13-01-2002,15:00,64,R,ugm-3
13-01-2002,16:00,64,R,ugm-3
13-01-2002,17:00,60,R,ugm-3
13-01-2002,18:00,52,R,ugm-3
13-01-2002,19:00,44,R,ugm-3
13-01-2002,20:00,42,R,ugm-3
13-01-2002,21:00,36,R,ugm-3
13-01-2002,22:00,62,R,ugm-3
13-01-2002,23:00,62,R,ugm-3
13-01-2002,24:00,64,R,ugm-3
14-01-2002,01:00,54,R,ugm-3
14-01-2002,02:00,52,R,ugm-3
14-01-2002,03:00,60,R,ugm-3
14-01-2002,04:00,56,R,ugm-3
14-01-2002,05:00,56,R,ugm-3
14-01-2002,06:00,52,R,ugm-3
14-01-2002,07:00,44,R,ugm-3
14-01-2002,08:00,38,R,ugm-3
14-01-2002,09:00,42,R,ugm-3
14-01-2002,10:00,46,R,ugm-3
14-01-2002,11:00,54,R,ugm-3
14-01-2002,12:00,58,R,ugm-3
14-01-2002,13:00,56,R,ugm-3
14-01-2002,14:00,58,R,ugm-3
14-01-2002,15:00,58,R,ugm-3
14-01-2002,16:00,56,R,ugm-3
14-01-2002,17:00,54,R,ugm-3
14-01-2002,18:00,56,R,ugm-3
14-01-2002,19:00,52,R,ugm-3
14-01-2002,20:00,44,R,ugm-3
14-01-2002,21:00,44,R,ugm-3
14-01-2002,22:00,58,R,ugm-3
14-01-2002,23:00,60,R,ugm-3
14-01-2002,24:00,56,R,ugm-3
15-01-2002,01:00,48,R,ugm-3
15-01-2002,02:00,52,R,ugm-3
15-01-2002,03:00,54,R,ugm-3
15-01-2002,04:00,52,R,ugm-3
15-01-2002,05:00,52,R,ugm-3
15-01-2002,06:00,46,R,ugm-3
15-01-2002,07:00,50,R,ugm-3
15-01-2002,08:00,54,R,ugm-3
15-01-2002,09:00,42,R,ugm-3
15-01-2002,10:00,50,R,ugm-3
15-01-2002,11:00,62,R,ugm-3
15-01-2002,12:00,68,R,ugm-3
15-01-2002,13:00,70,R,ugm-3
15-01-2002,14:00,68,R,ugm-3
15-01-2002,15:00,64,R,ugm-3
15-01-2002,16:00,70,R,ugm-3
15-01-2002,17:00,68,R,ugm-3
15-01-2002,18:00,62,R,ugm-3
15-01-2002,19:00,48,R,ugm-3
15-01-2002,20:00,42,R,ugm-3
15-01-2002,21:00,50,R,ugm-3
15-01-2002,22:00,38,R,ugm-3
15-01-2002,23:00,50,R,ugm-3
15-01-2002,24:00,52,R,ugm-3
16-01-2002,01:00,52,R,ugm-3
16-01-2002,02:00,48,R,ugm-3
16-01-2002,03:00,46,R,ugm-3
16-01-2002,04:00,44,R,ugm-3
16-01-2002,05:00,46,R,ugm-3
16-01-2002,06:00,40,R,ugm-3
16-01-2002,07:00,46,R,ugm-3
16-01-2002,08:00,42,R,ugm-3
16-01-2002,09:00,40,R,ugm-3
16-01-2002,10:00,,,
16-01-2002,11:00,58,R,ugm-3
16-01-2002,12:00,58,R,ugm-3
16-01-2002,13:00,58,R,ugm-3
16-01-2002,14:00,62,R,ugm-3
16-01-2002,15:00,58,R,ugm-3
16-01-2002,16:00,60,R,ugm-3
16-01-2002,17:00,48,R,ugm-3
16-01-2002,18:00,46,R,ugm-3
16-01-2002,19:00,50,R,ugm-3
16-01-2002,20:00,44,R,ugm-3
16-01-2002,21:00,50,R,ugm-3
16-01-2002,22:00,64,R,ugm-3
16-01-2002,23:00,70,R,ugm-3
16-01-2002,24:00,72,R,ugm-3
17-01-2002,01:00,76,R,ugm-3
17-01-2002,02:00,76,R,ugm-3
17-01-2002,03:00,80,R,ugm-3
17-01-2002,04:00,80,R,ugm-3
17-01-2002,05:00,82,R,ugm-3
17-01-2002,06:00,78,R,ugm-3
17-01-2002,07:00,80,R,ugm-3
17-01-2002,08:00,78,R,ugm-3
17-01-2002,09:00,78,R,ugm-3
17-01-2002,10:00,78,R,ugm-3
17-01-2002,11:00,74,R,ugm-3
17-01-2002,12:00,74,R,ugm-3
17-01-2002,13:00,66,R,ugm-3
17-01-2002,14:00,70,R,ugm-3
17-01-2002,15:00,72,R,ugm-3
17-01-2002,16:00,66,R,ugm-3
17-01-2002,17:00,64,R,ugm-3
17-01-2002,18:00,62,R,ugm-3
17-01-2002,19:00,56,R,ugm-3
17-01-2002,20:00,52,R,ugm-3
17-01-2002,21:00,44,R,ugm-3
17-01-2002,22:00,38,R,ugm-3
17-01-2002,23:00,42,R,ugm-3
17-01-2002,24:00,46,R,ugm-3
18-01-2002,01:00,48,R,ugm-3
18-01-2002,02:00,46,R,ugm-3
18-01-2002,03:00,44,R,ugm-3
18-01-2002,04:00,38,R,ugm-3
18-01-2002,05:00,36,R,ugm-3
18-01-2002,06:00,34,R,ugm-3
18-01-2002,07:00,38,R,ugm-3
18-01-2002,08:00,36,R,ugm-3
18-01-2002,09:00,22,R,ugm-3
18-01-2002,10:00,12,R,ugm-3
18-01-2002,11:00,30,R,ugm-3
18-01-2002,12:00,54,R,ugm-3
18-01-2002,13:00,76,R,ugm-3
18-01-2002,14:00,78,R,ugm-3
18-01-2002,15:00,76,R,ugm-3
18-01-2002,16:00,76,R,ugm-3
18-01-2002,17:00,74,R,ugm-3
18-01-2002,18:00,72,R,ugm-3
18-01-2002,19:00,68,R,ugm-3
18-01-2002,20:00,76,R,ugm-3
18-01-2002,21:00,74,R,ugm-3
18-01-2002,22:00,70,R,ugm-3
18-01-2002,23:00,62,R,ugm-3
18-01-2002,24:00,70,R,ugm-3
19-01-2002,01:00,72,R,ugm-3
19-01-2002,02:00,76,R,ugm-3
19-01-2002,03:00,78,R,ugm-3
19-01-2002,04:00,78,R,ugm-3
19-01-2002,05:00,80,R,ugm-3
19-01-2002,06:00,78,R,ugm-3
19-01-2002,07:00,74,R,ugm-3
19-01-2002,08:00,72,R,ugm-3
19-01-2002,09:00,76,R,ugm-3
19-01-2002,10:00,70,R,ugm-3
19-01-2002,11:00,76,R,ugm-3
19-01-2002,12:00,76,R,ugm-3
19-01-2002,13:00,84,R,ugm-3
19-01-2002,14:00,78,R,ugm-3
19-01-2002,15:00,76,R,ugm-3
19-01-2002,16:00,78,R,ugm-3
19-01-2002,17:00,68,R,ugm-3
19-01-2002,18:00,60,R,ugm-3
19-01-2002,19:00,60,R,ugm-3
19-01-2002,20:00,62,R,ugm-3
19-01-2002,21:00,58,R,ugm-3
19-01-2002,22:00,62,R,ugm-3
19-01-2002,23:00,64,R,ugm-3
19-01-2002,24:00,62,R,ugm-3
20-01-2002,01:00,60,R,ugm-3
20-01-2002,02:00,68,R,ugm-3
20-01-2002,03:00,74,R,ugm-3
20-01-2002,04:00,74,R,ugm-3
20-01-2002,05:00,78,R,ugm-3
20-01-2002,06:00,78,R,ugm-3
20-01-2002,07:00,80,R,ugm-3
20-01-2002,08:00,80,R,ugm-3
20-01-2002,09:00,80,R,ugm-3
20-01-2002,10:00,82,R,ugm-3
20-01-2002,11:00,82,R,ugm-3
20-01-2002,12:00,82,R,ugm-3
20-01-2002,13:00,78,R,ugm-3
20-01-2002,14:00,74,R,ugm-3
20-01-2002,15:00,72,R,ugm-3
20-01-2002,16:00,66,R,ugm-3
20-01-2002,17:00,60,R,ugm-3
20-01-2002,18:00,66,R,ugm-3
20-01-2002,19:00,62,R,ugm-3
20-01-2002,20:00,62,R,ugm-3
20-01-2002,21:00,66,R,ugm-3
20-01-2002,22:00,60,R,ugm-3
20-01-2002,23:00,54,R,ugm-3
20-01-2002,24:00,54,R,ugm-3
21-01-2002,01:00,56,R,ugm-3
21-01-2002,02:00,56,R,ugm-3
21-01-2002,03:00,64,R,ugm-3
21-01-2002,04:00,64,R,ugm-3
21-01-2002,05:00,68,R,ugm-3
21-01-2002,06:00,70,R,ugm-3
21-01-2002,07:00,72,R,ugm-3
21-01-2002,08:00,74,R,ugm-3
21-01-2002,09:00,74,R,ugm-3
21-01-2002,10:00,72,R,ugm-3
21-01-2002,11:00,68,R,ugm-3
21-01-2002,12:00,66,R,ugm-3
21-01-2002,13:00,64,R,ugm-3
21-01-2002,14:00,66,R,ugm-3
21-01-2002,15:00,66,R,ugm-3
21-01-2002,16:00,66,R,ugm-3
21-01-2002,17:00,66,R,ugm-3
21-01-2002,18:00,66,R,ugm-3
21-01-2002,19:00,66,R,ugm-3
21-01-2002,20:00,64,R,ugm-3
21-01-2002,21:00,64,R,ugm-3
21-01-2002,22:00,64,R,ugm-3
21-01-2002,23:00,66,R,ugm-3
21-01-2002,24:00,74,R,ugm-3
22-01-2002,01:00,74,R,ugm-3
22-01-2002,02:00,70,R,ugm-3
22-01-2002,03:00,70,R,ugm-3
22-01-2002,04:00,72,R,ugm-3
22-01-2002,05:00,70,R,ugm-3
22-01-2002,06:00,72,R,ugm-3
22-01-2002,07:00,72,R,ugm-3
22-01-2002,08:00,64,R,ugm-3
22-01-2002,09:00,68,R,ugm-3
22-01-2002,10:00,64,R,ugm-3
22-01-2002,11:00,66,R,ugm-3
22-01-2002,12:00,70,R,ugm-3
22-01-2002,13:00,72,R,ugm-3
22-01-2002,14:00,78,R,ugm-3
22-01-2002,15:00,76,R,ugm-3
22-01-2002,16:00,74,R,ugm-3
22-01-2002,17:00,70,R,ugm-3
22-01-2002,18:00,74,R,ugm-3
22-01-2002,19:00,74,R,ugm-3
22-01-2002,20:00,76,R,ugm-3
22-01-2002,21:00,76,R,ugm-3
22-01-2002,22:00,78,R,ugm-3
22-01-2002,23:00,78,R,ugm-3
22-01-2002,24:00,78,R,ugm-3
23-01-2002,01:00,78,R,ugm-3
23-01-2002,02:00,78,R,ugm-3
23-01-2002,03:00,78,R,ugm-3
23-01-2002,04:00,76,R,ugm-3
23-01-2002,05:00,76,R,ugm-3
23-01-2002,06:00,74,R,ugm-3
23-01-2002,07:00,68,R,ugm-3
23-01-2002,08:00,70,R,ugm-3
23-01-2002,09:00,70,R,ugm-3
23-01-2002,10:00,70,R,ugm-3
23-01-2002,11:00,76,R,ugm-3
23-01-2002,12:00,80,R,ugm-3
23-01-2002,13:00,80,R,ugm-3
23-01-2002,14:00,82,R,ugm-3
23-01-2002,15:00,82,R,ugm-3
23-01-2002,16:00,82,R,ugm-3
23-01-2002,17:00,80,R,ugm-3
23-01-2002,18:00,78,R,ugm-3
23-01-2002,19:00,78,R,ugm-3
23-01-2002,20:00,80,R,ugm-3
23-01-2002,21:00,82,R,ugm-3
23-01-2002,22:00,78,R,ugm-3
23-01-2002,23:00,70,R,ugm-3
23-01-2002,24:00,72,R,ugm-3
24-01-2002,01:00,76,R,ugm-3
24-01-2002,02:00,78,R,ugm-3
24-01-2002,03:00,78,R,ugm-3
24-01-2002,04:00,82,R,ugm-3
24-01-2002,05:00,80,R,ugm-3
24-01-2002,06:00,78,R,ugm-3
24-01-2002,07:00,76,R,ugm-3
24-01-2002,08:00,72,R,ugm-3
24-01-2002,09:00,72,R,ugm-3
24-01-2002,10:00,72,R,ugm-3
24-01-2002,11:00,70,R,ugm-3
24-01-2002,12:00,62,R,ugm-3
24-01-2002,13:00,64,R,ugm-3
24-01-2002,14:00,70,R,ugm-3
24-01-2002,15:00,50,R,ugm-3
24-01-2002,16:00,58,R,ugm-3
24-01-2002,17:00,66,R,ugm-3
24-01-2002,18:00,58,R,ugm-3
24-01-2002,19:00,58,R,ugm-3
24-01-2002,20:00,62,R,ugm-3
24-01-2002,21:00,62,R,ugm-3
24-01-2002,22:00,50,R,ugm-3
24-01-2002,23:00,52,R,ugm-3
24-01-2002,24:00,48,R,ugm-3
25-01-2002,01:00,46,R,ugm-3
25-01-2002,02:00,44,R,ugm-3
25-01-2002,03:00,48,R,ugm-3
25-01-2002,04:00,38,R,ugm-3
25-01-2002,05:00,38,R,ugm-3
25-01-2002,06:00,48,R,ugm-3
25-01-2002,07:00,52,R,ugm-3
25-01-2002,08:00,56,R,ugm-3
25-01-2002,09:00,50,R,ugm-3
25-01-2002,10:00,58,R,ugm-3
25-01-2002,11:00,72,R,ugm-3
25-01-2002,12:00,74,R,ugm-3
25-01-2002,13:00,70,R,ugm-3
25-01-2002,14:00,68,R,ugm-3
25-01-2002,15:00,74,R,ugm-3
25-01-2002,16:00,70,R,ugm-3
25-01-2002,17:00,70,R,ugm-3
25-01-2002,18:00,72,R,ugm-3
25-01-2002,19:00,76,R,ugm-3
25-01-2002,20:00,80,R,ugm-3
25-01-2002,21:00,82,R,ugm-3
25-01-2002,22:00,86,R,ugm-3
25-01-2002,23:00,86,R,ugm-3
25-01-2002,24:00,82,R,ugm-3
26-01-2002,01:00,80,R,ugm-3
26-01-2002,02:00,78,R,ugm-3
26-01-2002,03:00,76,R,ugm-3
26-01-2002,04:00,78,R,ugm-3
26-01-2002,05:00,82,R,ugm-3
26-01-2002,06:00,84,R,ugm-3
26-01-2002,07:00,84,R,ugm-3
26-01-2002,08:00,84,R,ugm-3
26-01-2002,09:00,84,R,ugm-3
26-01-2002,10:00,86,R,ugm-3
26-01-2002,11:00,86,R,ugm-3
26-01-2002,12:00,86,R,ugm-3
26-01-2002,13:00,84,R,ugm-3
26-01-2002,14:00,86,R,ugm-3
26-01-2002,15:00,84,R,ugm-3
26-01-2002,16:00,78,R,ugm-3
26-01-2002,17:00,78,R,ugm-3
26-01-2002,18:00,78,R,ugm-3
26-01-2002,19:00,80,R,ugm-3
26-01-2002,20:00,76,R,ugm-3
26-01-2002,21:00,74,R,ugm-3
26-01-2002,22:00,76,R,ugm-3
26-01-2002,23:00,76,R,ugm-3
26-01-2002,24:00,78,R,ugm-3
27-01-2002,01:00,86,R,ugm-3
27-01-2002,02:00,82,R,ugm-3
27-01-2002,03:00,72,R,ugm-3
27-01-2002,04:00,68,R,ugm-3
27-01-2002,05:00,70,R,ugm-3
27-01-2002,06:00,66,R,ugm-3
27-01-2002,07:00,58,R,ugm-3
27-01-2002,08:00,58,R,ugm-3
27-01-2002,09:00,52,R,ugm-3
27-01-2002,10:00,54,R,ugm-3
27-01-2002,11:00,72,R,ugm-3
27-01-2002,12:00,72,R,ugm-3
27-01-2002,13:00,74,R,ugm-3
27-01-2002,14:00,72,R,ugm-3
27-01-2002,15:00,70,R,ugm-3
27-01-2002,16:00,66,R,ugm-3
27-01-2002,17:00,68,R,ugm-3
27-01-2002,18:00,74,R,ugm-3
27-01-2002,19:00,74,R,ugm-3
27-01-2002,20:00,72,R,ugm-3
27-01-2002,21:00,76,R,ugm-3
27-01-2002,22:00,78,R,ugm-3
27-01-2002,23:00,74,R,ugm-3
27-01-2002,24:00,74,R,ugm-3
28-01-2002,01:00,74,R,ugm-3
28-01-2002,02:00,76,R,ugm-3
28-01-2002,03:00,86,R,ugm-3
28-01-2002,04:00,84,R,ugm-3
28-01-2002,05:00,82,R,ugm-3
28-01-2002,06:00,84,R,ugm-3
28-01-2002,07:00,86,R,ugm-3
28-01-2002,08:00,88,R,ugm-3
28-01-2002,09:00,88,R,ugm-3
28-01-2002,10:00,90,R,ugm-3
28-01-2002,11:00,90,R,ugm-3
28-01-2002,12:00,88,R,ugm-3
28-01-2002,13:00,86,R,ugm-3
28-01-2002,14:00,84,R,ugm-3
28-01-2002,15:00,82,R,ugm-3
28-01-2002,16:00,78,R,ugm-3
28-01-2002,17:00,66,R,ugm-3
28-01-2002,18:00,68,R,ugm-3
28-01-2002,19:00,64,R,ugm-3
28-01-2002,20:00,62,R,ugm-3
28-01-2002,21:00,62,R,ugm-3
28-01-2002,22:00,66,R,ugm-3
28-01-2002,23:00,68,R,ugm-3
28-01-2002,24:00,74,R,ugm-3
29-01-2002,01:00,76,R,ugm-3
29-01-2002,02:00,76,R,ugm-3
29-01-2002,03:00,78,R,ugm-3
29-01-2002,04:00,78,R,ugm-3
29-01-2002,05:00,72,R,ugm-3
29-01-2002,06:00,66,R,ugm-3
29-01-2002,07:00,66,R,ugm-3
29-01-2002,08:00,60,R,ugm-3
29-01-2002,09:00,52,R,ugm-3
29-01-2002,10:00,60,R,ugm-3
29-01-2002,11:00,56,R,ugm-3
29-01-2002,12:00,58,R,ugm-3
29-01-2002,13:00,64,R,ugm-3
29-01-2002,14:00,64,R,ugm-3
29-01-2002,15:00,58,R,ugm-3
29-01-2002,16:00,54,R,ugm-3
29-01-2002,17:00,54,R,ugm-3
29-01-2002,18:00,56,R,ugm-3
29-01-2002,19:00,58,R,ugm-3
29-01-2002,20:00,62,R,ugm-3
29-01-2002,21:00,64,R,ugm-3
29-01-2002,22:00,64,R,ugm-3
29-01-2002,23:00,62,R,ugm-3
29-01-2002,24:00,66,R,ugm-3
30-01-2002,01:00,66,R,ugm-3
30-01-2002,02:00,54,R,ugm-3
30-01-2002,03:00,56,R,ugm-3
30-01-2002,04:00,58,R,ugm-3
30-01-2002,05:00,56,R,ugm-3
30-01-2002,06:00,58,R,ugm-3
30-01-2002,07:00,54,R,ugm-3
30-01-2002,08:00,56,R,ugm-3
30-01-2002,09:00,60,R,ugm-3
30-01-2002,10:00,60,R,ugm-3
30-01-2002,11:00,60,R,ugm-3
30-01-2002,12:00,62,R,ugm-3
30-01-2002,13:00,62,R,ugm-3
30-01-2002,14:00,66,R,ugm-3
30-01-2002,15:00,66,R,ugm-3
30-01-2002,16:00,64,R,ugm-3
30-01-2002,17:00,64,R,ugm-3
30-01-2002,18:00,58,R,ugm-3
30-01-2002,19:00,64,R,ugm-3
30-01-2002,20:00,56,R,ugm-3
30-01-2002,21:00,60,R,ugm-3
30-01-2002,22:00,64,R,ugm-3
30-01-2002,23:00,70,R,ugm-3
30-01-2002,24:00,80,R,ugm-3
31-01-2002,01:00,84,R,ugm-3
31-01-2002,02:00,78,R,ugm-3
31-01-2002,03:00,74,R,ugm-3
31-01-2002,04:00,72,R,ugm-3
31-01-2002,05:00,72,R,ugm-3
31-01-2002,06:00,70,R,ugm-3
31-01-2002,07:00,62,R,ugm-3
31-01-2002,08:00,56,R,ugm-3
31-01-2002,09:00,64,R,ugm-3
31-01-2002,10:00,,,
31-01-2002,11:00,78,R,ugm-3
31-01-2002,12:00,82,R,ugm-3
31-01-2002,13:00,82,R,ugm-3
31-01-2002,14:00,82,R,ugm-3
31-01-2002,15:00,82,R,ugm-3
31-01-2002,16:00,82,R,ugm-3
31-01-2002,17:00,82,R,ugm-3
31-01-2002,18:00,82,R,ugm-3
31-01-2002,19:00,88,R,ugm-3
31-01-2002,20:00,76,R,ugm-3
31-01-2002,21:00,78,R,ugm-3
31-01-2002,22:00,70,R,ugm-3
31-01-2002,23:00,68,R,ugm-3
31-01-2002,24:00,66,R,ugm-3
01-02-2002,01:00,64,R,ugm-3
01-02-2002,02:00,70,R,ugm-3
01-02-2002,03:00,82,R,ugm-3
01-02-2002,04:00,82,R,ugm-3
01-02-2002,05:00,78,R,ugm-3
01-02-2002,06:00,80,R,ugm-3
01-02-2002,07:00,82,R,ugm-3
01-02-2002,08:00,80,R,ugm-3
01-02-2002,09:00,80,R,ugm-3
01-02-2002,10:00,82,R,ugm-3
01-02-2002,11:00,84,R,ugm-3
01-02-2002,12:00,84,R,ugm-3
01-02-2002,13:00,84,R,ugm-3
01-02-2002,14:00,82,R,ugm-3
01-02-2002,15:00,84,R,ugm-3
01-02-2002,16:00,84,R,ugm-3
01-02-2002,17:00,84,R,ugm-3
01-02-2002,18:00,84,R,ugm-3
01-02-2002,19:00,84,R,ugm-3
01-02-2002,20:00,86,R,ugm-3
01-02-2002,21:00,86,R,ugm-3
01-02-2002,22:00,88,R,ugm-3
01-02-2002,23:00,88,R,ugm-3
01-02-2002,24:00,88,R,ugm-3
02-02-2002,01:00,88,R,ugm-3
02-02-2002,02:00,88,R,ugm-3
02-02-2002,03:00,88,R,ugm-3
02-02-2002,04:00,88,R,ugm-3
02-02-2002,05:00,88,R,ugm-3
02-02-2002,06:00,88,R,ugm-3
02-02-2002,07:00,86,R,ugm-3
02-02-2002,08:00,84,R,ugm-3
02-02-2002,09:00,82,R,ugm-3
02-02-2002,10:00,84,R,ugm-3
02-02-2002,11:00,86,R,ugm-3
02-02-2002,12:00,84,R,ugm-3
02-02-2002,13:00,84,R,ugm-3
02-02-2002,14:00,84,R,ugm-3
02-02-2002,15:00,84,R,ugm-3
02-02-2002,16:00,82,R,ugm-3
02-02-2002,17:00,80,R,ugm-3
02-02-2002,18:00,78,R,ugm-3
02-02-2002,19:00,80,R,ugm-3
02-02-2002,20:00,86,R,ugm-3
02-02-2002,21:00,84,R,ugm-3
02-02-2002,22:00,76,R,ugm-3
02-02-2002,23:00,80,R,ugm-3
02-02-2002,24:00,80,R,ugm-3
03-02-2002,01:00,74,R,ugm-3
03-02-2002,02:00,66,R,ugm-3
03-02-2002,03:00,74,R,ugm-3
03-02-2002,04:00,74,R,ugm-3
03-02-2002,05:00,70,R,ugm-3
03-02-2002,06:00,68,R,ugm-3
03-02-2002,07:00,82,R,ugm-3
03-02-2002,08:00,90,R,ugm-3
03-02-2002,09:00,88,R,ugm-3
03-02-2002,10:00,84,R,ugm-3
03-02-2002,11:00,82,R,ugm-3
03-02-2002,12:00,78,R,ugm-3
03-02-2002,13:00,78,R,ugm-3
03-02-2002,14:00,78,R,ugm-3
03-02-2002,15:00,74,R,ugm-3
03-02-2002,16:00,72,R,ugm-3
03-02-2002,17:00,78,R,ugm-3
03-02-2002,18:00,82,R,ugm-3
03-02-2002,19:00,90,R,ugm-3
03-02-2002,20:00,82,R,ugm-3
03-02-2002,21:00,76,R,ugm-3
03-02-2002,22:00,76,R,ugm-3
03-02-2002,23:00,74,R,ugm-3
03-02-2002,24:00,70,R,ugm-3
04-02-2002,01:00,72,R,ugm-3
04-02-2002,02:00,72,R,ugm-3
04-02-2002,03:00,80,R,ugm-3
04-02-2002,04:00,74,R,ugm-3
04-02-2002,05:00,70,R,ugm-3
04-02-2002,06:00,68,R,ugm-3
04-02-2002,07:00,74,R,ugm-3
04-02-2002,08:00,76,R,ugm-3
04-02-2002,09:00,76,R,ugm-3
04-02-2002,10:00,80,R,ugm-3
04-02-2002,11:00,,,
04-02-2002,12:00,84,R,ugm-3
04-02-2002,13:00,84,R,ugm-3
04-02-2002,14:00,84,R,ugm-3
04-02-2002,15:00,78,R,ugm-3
04-02-2002,16:00,74,R,ugm-3
04-02-2002,17:00,64,R,ugm-3
04-02-2002,18:00,56,R,ugm-3
04-02-2002,19:00,56,R,ugm-3
04-02-2002,20:00,60,R,ugm-3
04-02-2002,21:00,66,R,ugm-3
04-02-2002,22:00,70,R,ugm-3
04-02-2002,23:00,68,R,ugm-3
04-02-2002,24:00,80,R,ugm-3
05-02-2002,01:00,80,R,ugm-3
05-02-2002,02:00,78,R,ugm-3
05-02-2002,03:00,80,R,ugm-3
05-02-2002,04:00,78,R,ugm-3
05-02-2002,05:00,80,R,ugm-3
05-02-2002,06:00,80,R,ugm-3
05-02-2002,07:00,80,R,ugm-3
05-02-2002,08:00,78,R,ugm-3
05-02-2002,09:00,80,R,ugm-3
05-02-2002,10:00,82,R,ugm-3
05-02-2002,11:00,80,R,ugm-3
05-02-2002,12:00,84,R,ugm-3
05-02-2002,13:00,86,R,ugm-3